Location: G�ppingen
(48.7089°N, 9.6563°E)
Time: 23:56:04
(UTC+01:00)

ISS - Visible Passes

Search period start: 21 February 2018 00:00
Search period end: 03 March 2018 00:00
Orbit: 403 x 407 km, 51.6° (Epoch: 22 February)

Date Brightness Start Highest point End Pass type
(mag) Time Alt. Az. Time Alt. Az. Time Alt. Az.
26 Feb -0.9 06:24:47 10° S 06:26:52 16° SE 06:28:58 10° E visible
28 Feb -2.0 06:15:38 10° SSW 06:18:33 30° SE 06:21:29 10° E visible
01 Mar -1.4 05:24:06 10° S 05:26:27 19° SE 05:28:51 10° E visible
02 Mar -0.9 04:34:15 11° SE 04:34:24 11° SE 04:35:31 10° ESE visible
02 Mar -3.3 06:07:04 10° SW 06:10:18 57° SSE 06:13:32 10° ENE visible
